Vorticity
9 8 6 6 7 8 8 8 6 4 3 5 7 7 6 7 8 9 9 8 9 10
9 8 7 7 8 9 9 8 5 4 5 5 4 6 8 8 9 9 9 10 10 10
9 8 8 8 8 8 8 6 4 3 3 5 8 8 8 9 10 10 10 9 10 11
10 8 7 7 8 8 6 4 0 -1 8 8 8 8 10 10 10 9 9 11 10 12
9 7 7 8 8 6 4 -1 3 6 10 10 8 10 10 9 10 10 11 11 12 12
8 7 7 7 7 3 -2 7 9 10 8 9 10 11 11 10 11 11 11 11 12 11
9 7 6 4 4 2 9 8 10 8 9 10 11 11 10 10 10 10 10 11 10 10
7 8 10 7 5 8 10 12 7 8 11 12 10 10 10 9 9 10 10 10 11 11
7 7 6 10 12 12 10 6 8 10 12 11 9 9 9 8 9 10 10 11 10 9
9 8 13 12 10 6 6 6 10 12 11 8 8 9 9 8 9 10 11 10 9 10
10 14 10 7 7 6 9 11 12 11 8 8 8 9 9 9 9 10 9 9 11 11
11 9 7 5 6 9 11 11 12 9 8 9 8 9 9 9 8 9 10 10 12 11
7 4 5 7 9 10 11 12 11 8 8 7 8 9 8 8 9 10 10 11 10 8
4 6 8 10 11 11 12 11 8 8 7 9 8 7 8 10 11 11 10 11 12 10
Height
3033 3035 3037 3038 3039 3040 3040 3041 3040 3039 3038 3036 3034 3030 3027 3024 3021 3018 3014 3010 3005 3000
3024 3027 3029 3030 3032 3032 3033 3032 3032 3031 3029 3027 3024 3020 3018 3015 3012 3008 3003 2999 2994 2989
3015 3018 3020 3022 3023 3024 3024 3024 3023 3022 3020 3017 3014 3011 3008 3005 3001 2997 2992 2987 2982 2978
3008 3011 3013 3015 3015 3016 3016 3016 3015 3013 3012 3008 3004 3002 2999 2995 2991 2986 2982 2977 2972 2968
3002 3004 3006 3006 3007 3007 3007 3006 3006 3004 3002 2998 2997 2994 2990 2986 2981 2977 2973 2967 2962 2957
2995 2996 2997 2998 2998 2998 2998 2998 2996 2995 2992 2990 2988 2985 2981 2977 2972 2967 2961 2956 2951 2946
2986 2986 2986 2986 2988 2990 2989 2988 2987 2986 2984 2982 2979 2975 2971 2966 2961 2957 2952 2947 2942 2938
2973 2975 2979 2981 2981 2982 2982 2980 2980 2979 2976 2973 2969 2965 2961 2956 2951 2947 2943 2939 2934 2929
2972 2974 2974 2975 2975 2974 2973 2974 2973 2971 2968 2963 2960 2956 2951 2946 2942 2939 2934 2929 2926 2921
2967 2969 2969 2968 2967 2968 2968 2966 2964 2962 2960 2957 2952 2949 2944 2940 2936 2931 2926 2920 2915 2911
2961 2961 2961 2961 2961 2961 2962 2960 2957 2954 2953 2951 2945 2942 2938 2934 2929 2924 2918 2913 2907 2902
2954 2954 2955 2955 2956 2956 2955 2954 2952 2949 2945 2944 2939 2935 2931 2926 2921 2916 2910 2907 2902 2895
2949 2949 2951 2951 2950 2949 2949 2948 2947 2943 2938 2935 2933 2929 2924 2918 2912 2908 2904 2899 2893 2887
2945 2945 2945 2945 2944 2943 2944 2943 2941 2937 2933 2929 2925 2921 2917 2912 2906 2900 2893 2888 2883 2877